This is the latest recevied weather packets stored in our database for station/object I3LPO-3. If no packets are shown the sender has not sent any weather packets the latest 10 day(s).
| Time | Temp. | Humidity | Pressure | Rain* | Wind** | Luminosity | Snow |
|---|---|---|---|---|---|---|---|
| 1777849617 | 16.11° C | 38% | 1019.2 hPa | - | - | - | - |
| 1777848416 | 16.67° C | 39% | 1019.3 hPa | - | - | - | - |
| 1777847215 | 16.67° C | 39% | 1019.3 hPa | - | - | - | - |
| 1777846013 | 17.22° C | 39% | 1019.2 hPa | - | - | - | - |
| 1777844812 | 17.22° C | 39% | 1019.1 hPa | - | - | - | - |
| 1777843611 | 17.78° C | 39% | 1018.9 hPa | - | - | - | - |
| 1777842405 | 17.78° C | 39% | 1018.9 hPa | - | - | - | - |
| 1777841203 | 18.33° C | 39% | 1019 hPa | - | - | - | - |
| 1777840002 | 18.33° C | 39% | 1018.8 hPa | - | - | - | - |
| 1777838800 | 18.89° C | 39% | 1018.9 hPa | - | - | - | - |
| 1777837599 | 19.44° C | 39% | 1018.6 hPa | - | - | - | - |
| 1777836398 | 20° C | 39% | 1018.4 hPa | - | - | - | - |
| 1777835197 | 20° C | 39% | 1018.1 hPa | - | - | - | - |
| 1777833995 | 20.56° C | 39% | 1017.8 hPa | - | - | - | - |
| 1777832794 | 21.11° C | 39% | 1017.3 hPa | - | - | - | - |
| 1777831593 | 21.67° C | 39% | 1017.1 hPa | - | - | - | - |
| 1777830392 | 22.22° C | 38% | 1017 hPa | - | - | - | - |
| 1777829190 | 22.22° C | 38% | 1016.9 hPa | - | - | - | - |
| 1777827989 | 22.78° C | 38% | 1016.8 hPa | - | - | - | - |
| 1777826788 | 22.78° C | 37% | 1016.8 hPa | - | - | - | - |
| 1777825587 | 23.33° C | 36% | 1016.8 hPa | - | - | - | - |
| 1777824385 | 22.78° C | 37% | 1017.1 hPa | - | - | - | - |
| 1777823184 | 22.78° C | 37% | 1017.2 hPa | - | - | - | - |
| 1777821983 | 23.33° C | 37% | 1017.4 hPa | - | - | - | - |
| 1777820781 | 23.89° C | 37% | 1017.5 hPa | - | - | - | - |
* Rain since midnight (hover to see other rain measurements)
** Current wind speed in m/s (hover to see current wind gust speed)